Location: Cuguron
(43.0994°N, 0.5363°E)
Time: 11:48:27
(UTC+00:00)

Okean 1-7 Rocket - Pass Details

Date: 15 May 2026
Orbit: 611 x 641 km, 82.5° (Epoch: 6 June)

Event Time Altitude Azimuth Distance (km) Brightness Sun altitude
Rises 21:42:43 0° 351° (N) 2,927 8.2 -20.9°
Reaches altitude 10° 21:44:57 10° 350° (N) 2,020 7.1 -21.1°
Maximum altitude 21:49:26 84° 263° (W) 644 3.5 -21.6°
Enters shadow 21:50:20 57° 183° (S) 750 3.6 -21.6°
